Pittsfield, MA

6:38 PM EDT on June 23, 2017 (GMT -0400)
Pittsfield Municipal

Weather History for KPSF - November, 2013

Change the Weather History Date:

Sunday, November 10, 2013

  Actual Average Record
Temperature  
Mean Temperature 39 °F 40 °F  
Max Temperature 45 °F 49 °F 64 °F (1948)
Min Temperature 33 °F 30 °F 14 °F (1956)
Degree Days  
Heating Degree Days 26 25  
Month to date heating degree days 243 238  
Since 1 July heating degree days 1016 1074  
Cooling Degree Days 0 0  
Month to date cooling degree days 0 0  
Year to date cooling degree days 433 290  
Moisture  
Dew Point 32 °F    
Average Humidity 79    
Maximum Humidity 92    
Minimum Humidity 65    
Precipitation  
Precipitation 0.06 in 0.12 in 1.38 in (1926)
Month to date precipitation 0.86 1.30  
Year to date precipitation 34.38 39.75  
Sea Level Pressure  
Sea Level Pressure 29.84 in    
Wind  
Wind Speed 10 mph (West)    
Max Wind Speed 31 mph    
Max Gust Speed 44 mph    
Visibility 9 miles    
Events Rain , Snow    
T = Trace of Precipitation, MM = Missing Value Source: NWS Daily Summary

Daily Weather History Graph

Daily Weather History Graph

Search for Another Location

Airport or City:

Trip Planner

Search our weather history database for the weather conditions in past years. The results will help you decide how hot, cold, wet, or windy it might be!

Date:

Astronomy

Nov. 10, 2013 Rise Set
Actual Time 6:38 AM EST 4:35 PM EST
Civil Twilight 6:08 AM EST 5:05 PM EST
Nautical Twilight 5:34 AM EST 5:39 PM EST
Astronomical Twilight 5:01 AM EST 6:12 PM EST
Moon 12:47 PM EST (11/10) No Moon Set
Length of Visible Light 10h 57m
Length of Day
9h 57m
First Quarter, 55% of the Moon is Illuminated
Nov 10
First Quarter
Nov 17
Full
Nov 25
Last Quarter
Dec 2
New
Dec 9
First Quarter

Hourly Weather History & Observations

Time (EST) Temp. Windchill Dew Point Humidity Pressure Visibility Wind Dir Wind Speed Gust Speed Precip Events Conditions
12:54 AM 39.9 °F 36.7 °F 27.0 °F 60% 29.91 in 10.0 mi Variable 4.6 mph - 0.00 in Rain Light Rain
1:54 AM 37.9 °F 35.5 °F 30.0 °F 73% 29.88 in 10.0 mi Variable 3.5 mph - 0.00 in   Overcast
2:54 AM 37.9 °F 35.5 °F 30.0 °F 73% 29.86 in 10.0 mi Variable 3.5 mph - 0.00 in   Overcast
3:54 AM 39.0 °F - 30.0 °F 70% 29.84 in 10.0 mi Calm Calm - N/A   Overcast
4:54 AM 36.0 °F - 33.1 °F 89% 29.83 in 10.0 mi Calm Calm - 0.00 in   Overcast
5:54 AM 36.0 °F - 33.1 °F 89% 29.82 in 10.0 mi Calm Calm - N/A   Overcast
6:54 AM 34.0 °F - 30.9 °F 89% 29.82 in 7.0 mi Calm Calm - N/A   Mostly Cloudy
7:54 AM 37.0 °F - 34.0 °F 89% 29.82 in 8.0 mi Calm Calm - N/A   Overcast
8:54 AM 39.0 °F 36.8 °F 34.0 °F 82% 29.83 in 10.0 mi SSE 3.5 mph - 0.00 in Rain Light Rain
9:54 AM 43.0 °F 39.5 °F 32.0 °F 65% 29.79 in 10.0 mi WSW 5.8 mph - 0.00 in   Overcast
10:54 AM 44.1 °F 41.5 °F 34.0 °F 68% 29.78 in 10.0 mi West 4.6 mph - N/A   Overcast
11:54 AM 44.1 °F 36.8 °F 34.0 °F 68% 29.77 in 10.0 mi WSW 16.1 mph 21.9 mph 0.00 in Rain Light Rain
12:54 PM 43.0 °F 36.8 °F 35.1 °F 74% 29.75 in 10.0 mi SW 11.5 mph 17.3 mph 0.00 in   Overcast
1:54 PM 43.0 °F 36.4 °F 32.0 °F 65% 29.75 in 10.0 mi WSW 12.7 mph 19.6 mph 0.00 in   Overcast
2:54 PM 43.0 °F 35.7 °F 32.0 °F 65% 29.76 in 10.0 mi WSW 15.0 mph 23.0 mph N/A   Overcast
3:54 PM 41.0 °F 32.8 °F 34.0 °F 76% 29.79 in 3.0 mi West 16.1 mph 34.5 mph 0.01 in Rain Light Rain
4:08 PM 39.2 °F 31.6 °F 33.8 °F 81% 29.79 in 10.0 mi West 12.7 mph - 0.00 in   Mostly Cloudy
4:54 PM 39.9 °F 33.4 °F 33.1 °F 77% 29.81 in 10.0 mi WNW 10.4 mph - 0.03 in   Mostly Cloudy
5:54 PM 41.0 °F 34.7 °F 32.0 °F 70% 29.83 in 10.0 mi WSW 10.4 mph - N/A   Overcast
6:54 PM 39.9 °F 31.1 °F 32.0 °F 73% 29.85 in 10.0 mi West 17.3 mph 25.3 mph 0.00 in   Overcast
7:54 PM 41.0 °F 32.8 °F 30.9 °F 67% 29.85 in 10.0 mi West 16.1 mph 26.5 mph N/A   Overcast
8:54 PM 37.9 °F 30.0 °F 32.0 °F 79% 29.87 in 10.0 mi West 12.7 mph 24.2 mph 0.01 in   Overcast
9:43 PM 37.4 °F 26.4 °F 30.2 °F 75% 29.89 in 8.0 mi WNW 23.0 mph 36.8 mph 0.00 in Rain Light Rain
9:54 PM 35.1 °F 22.7 °F 30.9 °F 85% 29.91 in 2.5 mi WNW 25.3 mph 43.7 mph 0.00 in Snow Light Snow
10:05 PM 35.6 °F 23.7 °F 30.2 °F 81% 29.90 in 7.0 mi WNW 24.2 mph 41.4 mph 0.00 in Snow Light Snow
10:17 PM 35.6 °F 23.2 °F 30.2 °F 81% 29.90 in 10.0 mi West 26.5 mph 35.7 mph 0.01 in   Overcast
10:54 PM 36.0 °F 24.7 °F 28.0 °F 73% 29.92 in 10.0 mi WNW 21.9 mph 35.7 mph 0.01 in   Overcast
11:46 PM 35.6 °F 24.0 °F 28.4 °F 75% 29.93 in 10.0 mi WNW 23.0 mph 32.2 mph N/A   Overcast
11:54 PM 36.0 °F 24.7 °F 28.0 °F 73% 29.94 in 10.0 mi WNW 21.9 mph 34.5 mph N/A   Overcast